Location: Melbourne
(37.8170°S, 144.9670°E)
Time: 21:40:49
(UTC+11:00)

Aureole 2 Rocket - Visible Passes

Search period start: 22 February 2018 00:00
Search period end: 04 March 2018 00:00
Orbit: 325 x 537 km, 73.9° (Epoch: 20 February)

Date Brightness Start Highest point End Pass type
(mag) Time Alt. Az. Time Alt. Az. Time Alt. Az.
22 Feb 5.6 05:18:41 10° SSE 05:20:59 16° ESE 05:23:10 10° ENE visible
23 Feb 2.3 06:10:37 10° SSW 06:14:03 59° WNW 06:17:09 10° N visible
24 Feb 3.4 05:28:42 10° S 05:32:03 46° ESE 05:35:06 10° NE visible
24 Feb 6.3 20:37:41 10° W 20:39:38 13° WSW 20:41:35 10° SSW visible
25 Feb 5.1 04:47:19 10° SSE 04:49:50 19° ESE 04:52:12 10° ENE visible
25 Feb 3.8 06:22:17 10° SW 06:24:33 17° W 06:26:42 10° NW visible
26 Feb 2.4 05:39:30 10° SSW 05:42:44 45° WNW 05:44:27 21° NNW visible
27 Feb 3.8 04:57:23 10° S 04:59:24 31° S 04:59:24 31° S visible
28 Feb 5.6 04:15:49 10° S 04:15:57 11° SSE 04:15:57 11° SSE visible
